This is the latest recevied weather packets stored in our database for station/object YT1XN-8. If no packets are shown the sender has not sent any weather packets the latest 10 day(s).
| Time | Temp. | Humidity | Pressure | Rain* | Wind** | Luminosity | Snow |
|---|---|---|---|---|---|---|---|
| 1776939521 | 16.67° C | 52% | 1019.2 hPa | 0 mm | - | - | - |
| 1776938861 | 17.22° C | 53% | 1019.5 hPa | 0 mm | - | - | - |
| 1776938200 | 17.22° C | 53% | 1019.7 hPa | 0 mm | - | - | - |
| 1776937845 | 16.67° C | 53% | 1019.7 hPa | 0 mm | - | - | - |
| 1776937541 | 16.67° C | 58% | 1019.8 hPa | 0 mm | - | - | - |
| 1776937245 | 16.67° C | 56% | 1019.9 hPa | 0 mm | - | - | - |
| 1776936880 | 16.67° C | 58% | 1020 hPa | 0 mm | - | - | - |
| 1776936220 | 16.67° C | 60% | 1020.2 hPa | 0 mm | - | - | - |
| 1776935560 | 16.11° C | 55% | 1020.1 hPa | 0 mm | - | - | - |
| 1776934901 | 15.56° C | 59% | 1020.3 hPa | 0 mm | - | - | - |
| 1776934844 | 15.56° C | 61% | 1020.3 hPa | 0 mm | - | - | - |
| 1776934240 | 15° C | 60% | 1020.5 hPa | 0 mm | - | - | - |
| 1776933580 | 15° C | 56% | 1020.5 hPa | 0 mm | - | - | - |
| 1776933044 | 14.44° C | 59% | 1020.7 hPa | 0 mm | - | - | - |
| 1776932920 | 14.44° C | 59% | 1020.7 hPa | 0 mm | - | - | - |
| 1776932260 | 14.44° C | 61% | 1020.8 hPa | 0 mm | - | - | - |
| 1776931845 | 13.89° C | 61% | 1020.8 hPa | 0 mm | - | - | - |
| 1776931601 | 13.89° C | 59% | 1020.8 hPa | 0 mm | - | - | - |
| 1776930940 | 13.33° C | 62% | 1020.8 hPa | 0 mm | - | - | - |
| 1776930644 | 13.33° C | 61% | 1020.8 hPa | 0 mm | - | - | - |
| 1776930280 | 13.33° C | 62% | 1020.7 hPa | 0 mm | - | - | - |
| 1776930048 | 12.78° C | 62% | 1020.7 hPa | 0 mm | - | - | - |
| 1776929620 | 12.78° C | 63% | 1020.8 hPa | 0 mm | - | - | - |
| 1776928960 | 12.22° C | 64% | 1020.9 hPa | 0 mm | - | - | - |
| 1776928300 | 11.67° C | 66% | 1020.9 hPa | 0 mm | - | - | - |
* Rain latest hour (hover to see other rain measurements)
** Current wind speed in m/s (hover to see current wind gust speed)